GW6121 Weather Reports


time (UTC)temp
C
wind
direction
speed
KPH
gust
KPH
rain 1hr
cm
rain 24hr
cm
rain mn
cm
humidity
%
barometer
mb
20260507183130 16 360 3.2 0.0 0.00 0.00 0.03 75 1010.8
20260507181621 17 153 4.8 0.0 0.00 0.00 0.03 74 1010.7
20260507180021 17 152 6.4 0.0 0.00 0.00 0.03 73 1010.6
20260507174515 17 159 9.7 0.0 0.00 0.00 0.03 72 1010.7
20260507173140 17 184 8.0 0.0 0.00 0.00 0.03 71 1010.8
20260507171633 17 148 8.0 0.0 0.00 0.00 0.03 70 1010.8
20260507170118 17 130 9.7 0.0 0.00 0.00 0.03 69 1010.8
20260507164528 18 126 9.7 0.0 0.00 0.00 0.03 67 1010.8
20260507163007 18 132 12.9 0.0 0.00 0.00 0.03 66 1010.8
20260507161639 18 143 11.3 0.0 0.00 0.00 0.03 63 1011.1
20260507160121 18 128 11.3 0.0 0.00 0.00 0.03 59 1010.9
20260507154613 18 136 11.3 0.0 0.00 0.00 0.03 58 1010.8
20260507153103 19 90 9.7 0.0 0.00 0.00 0.03 56 1010.7
20260507151514 19 149 11.3 0.0 0.00 0.00 0.03 56 1010.7
20260507150002 18 123 11.3 0.0 0.00 0.00 0.03 56 1010.7
20260507144639 18 113 11.3 0.0 0.00 0.00 0.03 56 1010.7
20260507143118 18 126 12.9 0.0 0.00 0.00 0.03 57 1010.8
20260507141620 18 57 14.5 0.0 0.00 0.00 0.03 57 1011.0
20260507140010 18 120 14.5 0.0 0.00 0.00 0.03 57 1011.2
20260507134644 18 132 14.5 0.0 0.00 0.00 0.03 58 1011.3
20260507133133 18 121 14.5 0.0 0.00 0.00 0.03 56 1011.6
20260507131616 18 113 16.1 0.0 0.00 0.00 0.03 58 1011.9
20260507130027 18 156 17.7 0.0 0.00 0.00 0.03 58 1011.9
20260507124642 18 150 17.7 0.0 0.00 0.00 0.03 57 1011.8
20260507123127 18 129 16.1 0.0 0.00 0.00 0.03 57 1011.9
20260507121613 18 147 16.1 0.0 0.00 0.00 0.03 59 1011.8
20260507120055 18 103 16.1 0.0 0.00 0.00 0.03 59 1011.7
20260507114502 18 142 12.9 0.0 0.00 0.00 0.03 57 1012.0
20260507113135 18 177 11.3 0.0 0.00 0.00 0.03 58 1012.1
20260507111615 18 151 11.3 0.0 0.00 0.00 0.03 59 1012.2
20260507110019 18 155 11.3 0.0 0.00 0.00 0.03 61 1012.2
20260507104515 18 119 9.7 0.0 0.00 0.00 0.03 62 1012.3
20260507103005 18 157 8.0 0.0 0.00 0.00 0.03 63 1012.4
20260507101639 18 144 9.7 0.0 0.00 0.00 0.03 64 1012.6
20260507100113 18 138 6.4 0.0 0.00 0.00 0.03 67 1012.6
20260507094604 18 143 4.8 0.0 0.00 0.00 0.03 68 1012.6
20260507093011 18 136 6.4 0.0 0.00 0.00 0.03 69 1012.6
20260507091503 17 182 6.4 0.0 0.00 0.00 0.03 69 1012.5
20260507090128 17 246 4.8 0.0 0.00 0.00 0.03 70 1012.5
20260507084608 17 244 3.2 0.0 0.00 0.00 0.03 70 1012.5
20260507083002 17 166 3.2 0.0 0.00 0.00 0.03 74 1012.7
20260507081629 16 126 3.2 0.0 0.00 0.00 0.03 77 1012.8
20260507080117 15 290 0.0 0.0 0.00 0.00 0.03 83 1012.9
20260507074559 15 292 1.6 0.0 0.00 0.00 0.03 88 1012.9
20260507073003 13 226 3.2 0.0 0.00 0.00 0.03 89 1012.8
20260507071641 12 228 1.6 0.0 0.00 0.00 0.03 89 1012.8
20260507070119 12 245 3.2 0.0 0.00 0.00 0.03 89 1012.8
20260507064618 11 38 3.2 0.0 0.00 0.00 0.03 89 1012.7
20260507063016 11 222 1.6 0.0 0.00 0.00 0.03 90 1012.7
20260507061503 10 234 3.2 0.0 0.00 0.00 0.03 90 1012.6
20260507060131 10 243 1.6 0.0 0.00 0.00 0.03 90 1012.4
20260507054610 9 217 0.0 0.0 0.00 0.00 0.03 90 1012.4
20260507053010 8 360 1.6 0.0 0.00 0.00 0.03 90 1012.4
20260507051503 8 240 0.0 0.0 0.00 0.00 0.03 90 1012.2
20260507050132 8 246 3.2 0.0 0.00 0.00 0.03 90 1012.3
20260507044622 8 355 1.6 0.0 0.00 0.00 0.03 90 1012.1
20260507043104 8 355 1.6 0.0 0.00 0.00 0.03 90 1012.2
20260507041610 9 355 0.0 0.0 0.00 0.00 0.03 90 1012.1
20260507040008 9 355 0.0 0.0 0.00 0.00 0.03 89 1012.2
20260507034638 10 355 1.6 0.0 0.00 0.00 0.03 90 1012.0
20260507033121 10 355 1.6 0.0 0.00 0.00 0.00 89 1011.8
20260507031606 10 355 0.0 0.0 0.00 0.00 0.00 89 1012.0
20260507030016 10 355 0.0 0.0 0.00 0.00 0.00 89 1012.0
20260507024508 10 355 0.0 0.0 0.00 0.00 0.00 89 1012.0
20260507023143 10 355 0.0 0.0 0.00 0.00 0.00 89 1012.0
20260507021628 11 355 0.0 0.0 0.00 0.00 0.00 89 1012.0
20260507014523 11 355 0.0 0.0 0.00 0.00 0.00 89 1012.1
20260507013143 11 355 0.0 0.0 0.00 0.00 0.00 89 1012.2
20260507011618 11 355 0.0 0.0 0.00 0.00 0.00 89 1012.2
20260507010056 11 355 0.0 0.0 0.00 0.00 0.00 89 1012.4
20260507004516 12 355 0.0 0.0 0.00 0.00 0.00 89 1012.6
20260507003141 11 355 1.6 0.0 0.00 0.00 0.00 89 1012.6
20260507001623 12 355 0.0 0.0 0.00 0.00 0.00 89 1012.7
20260507000112 12 355 1.6 0.0 0.00 0.00 0.00 89 1012.8
20260506234513 12 355 1.6 0.0 0.00 0.00 0.00 89 1012.7
20260506233137 12 355 1.6 0.0 0.00 0.00 0.00 89 1012.8
20260506231612 12 355 1.6 0.0 0.00 0.00 0.00 88 1012.9
20260506230009 12 360 1.6 0.0 0.00 0.00 0.00 88 1012.9
20260506224627 12 360 3.2 0.0 0.00 0.00 0.00 88 1012.8
20260506223138 12 123 3.2 0.0 0.00 0.00 0.00 88 1012.9
20260506221514 13 117 3.2 0.0 0.00 0.00 0.00 87 1012.9
20260506220118 13 69 0.0 0.0 0.00 0.00 0.00 87 1012.9
20260506214650 13 69 1.6 0.0 0.00 0.00 0.03 87 1013.0
20260506213021 13 68 1.6 0.0 0.00 0.00 0.03 87 1013.1
20260506211626 13 68 4.8 0.0 0.00 0.00 0.03 87 1012.9
20260506210004 13 47 1.6 0.0 0.00 0.00 0.03 87 1013.0
20260506204618 13 9 4.8 0.0 0.00 0.00 0.03 87 1012.8
20260506203148 13 74 4.8 0.0 0.00 0.00 0.03 87 1012.6
20260506201610 14 57 4.8 0.0 0.00 0.00 0.03 87 1012.5
20260506200152 14 67 4.8 0.0 0.00 0.00 0.03 86 1012.2
20260506194620 14 40 6.4 0.0 0.00 0.00 0.03 86 1011.9
20260506193015 15 11 3.2 0.0 0.00 0.00 0.03 85 1011.8
20260506191513 15 346 1.6 0.0 0.00 0.00 0.03 85 1011.5
20260506190138 15 191 1.6 0.0 0.00 0.00 0.03 84 1011.2
20260506184624 15 171 4.8 0.0 0.00 0.00 0.03 84 1010.8